TimeEDT,TemperatureF,Dew PointF,Humidity,Sea Level PressureIn,VisibilityMPH,Wind Direction,Wind SpeedMPH,Gust SpeedMPH,PrecipitationIn,Events,Conditions,WindDirDegrees,DateUTC
12:53 AM,77.0,63.0,62,30.12,10.0,NNE,12.7,-,N/A,,Scattered Clouds,30,2012-10-12 04:53:00
2:53 AM,75.9,63.0,64,30.09,10.0,NNE,10.4,-,N/A,,Clear,30,2012-10-12 06:53:00
4:53 AM,75.9,64.0,67,30.08,10.0,NNE,9.2,-,N/A,,Partly Cloudy,20,2012-10-12 08:53:00
5:53 AM,77.0,64.0,64,30.09,10.0,NE,9.2,-,N/A,,Mostly Cloudy,40,2012-10-12 09:53:00
6:53 AM,77.0,63.0,62,30.11,10.0,NE,8.1,-,N/A,,Mostly Cloudy,40,2012-10-12 10:53:00
7:53 AM,77.0,64.0,64,30.12,10.0,North,5.8,-,N/A,,Scattered Clouds,10,2012-10-12 11:53:00
8:53 AM,80.1,64.0,58,30.14,10.0,NNE,15.0,19.6,N/A,,Partly Cloudy,20,2012-10-12 12:53:00
9:53 AM,81.0,64.0,56,30.15,10.0,NNE,16.1,21.9,N/A,,Partly Cloudy,20,2012-10-12 13:53:00
10:53 AM,82.9,63.0,51,30.16,10.0,NNE,16.1,24.2,N/A,,Scattered Clouds,30,2012-10-12 14:53:00
12:53 PM,82.9,64.9,54,30.15,10.0,NNE,17.3,25.3,N/A,,Scattered Clouds,20,2012-10-12 16:53:00
1:53 PM,82.9,63.0,51,30.13,10.0,NNE,17.3,24.2,N/A,,Partly Cloudy,30,2012-10-12 17:53:00
2:53 PM,82.9,63.0,51,30.10,10.0,NNE,16.1,24.2,N/A,,Scattered Clouds,20,2012-10-12 18:53:00
3:53 PM,81.0,62.1,52,30.10,10.0,NE,13.8,21.9,N/A,,Clear,40,2012-10-12 19:53:00
4:53 PM,81.0,61.0,50,30.10,10.0,NNE,17.3,21.9,N/A,,Clear,20,2012-10-12 20:53:00
5:53 PM,80.1,62.1,54,30.10,10.0,North,12.7,-,N/A,,Clear,10,2012-10-12 21:53:00
6:53 PM,77.0,63.0,62,30.12,10.0,North,10.4,-,N/A,,Clear,10,2012-10-12 22:53:00
7:53 PM,75.9,62.1,62,30.12,10.0,North,8.1,-,N/A,,Partly Cloudy,10,2012-10-12 23:53:00
8:53 PM,75.9,63.0,64,30.13,10.0,North,9.2,-,N/A,,Clear,10,2012-10-13 00:53:00
10:53 PM,77.0,63.0,62,30.15,10.0,NNE,9.2,-,N/A,,Scattered Clouds,20,2012-10-13 02:53:00
11:53 PM,75.9,63.0,64,30.14,10.0,NE,10.4,-,N/A,,Partly Cloudy,40,2012-10-13 03:53:00